Waarnemingen

Advertentie
Mijn weer
Ronneby, Zweden (2664): temperatuur & dauwpunt: 14.01.2021 20:00:00 - 20.01.2021 20:00:00 (CET)Ronneby, Zweden (2664): windsnelheid & windstoten: 14.01.2021 20:00:00 - 20.01.2021 20:00:00 (CET)Ronneby, Zweden (2664): windrichting: 14.01.2021 20:00:00 - 20.01.2021 20:00:00 (CET)Ronneby, Zweden (2664): luchtdruk: 14.01.2021 20:00:00 - 20.01.2021 20:00:00 (CET)Ronneby, Zweden (2664): zicht: 14.01.2021 20:00:00 - 20.01.2021 20:00:00 (CET)Ronneby, Zweden (2664): neerslag: 14.01.2021 20:00:00 - 20.01.2021 20:00:00 (CET)
Datum & Tijd tt [°C] td [°C] ff [km/u] ff [kn] fx [km/u] fx [kn] dd ppp [hPa] vv [km] rr [mm]
20.01.2021 20:00:00 4,8 4,8 15 8 25 14 ZW 995,3 3,0 0,2
20.01.2021 19:00:00 4,8 4,8 16 9 29 16 ZW 995,2 3,0 0,4
20.01.2021 18:00:00 4,7 4,7 16 9 32 18 ZZW 995,3 5 1,0
20.01.2021 17:00:00 4,7 4,7 16 9 32 18 ZZW 995,2 6 3,0
20.01.2021 16:00:00 4,6 4,6 18 10 29 16 ZZW 995,1 4,5 2,0
20.01.2021 15:00:00 4,6 4,6 18 10 29 16 ZZW 995,2 4,5 0,3
20.01.2021 14:00:00 4,7 4,7 18 10 32 18 ZZW 995,6 10 2,0
20.01.2021 13:00:00 4,8 4,8 16 9 29 16 ZZW 996,2 7 3,0
20.01.2021 12:00:00 4,9 4,9 15 8 25 14 ZW 996,4 6 2,0
20.01.2021 11:00:00 5,1 5,1 15 8 29 16 ZW 996,9 6 2,0
20.01.2021 10:00:00 4,4 4,4 9 5 14 8 Z 996,8 4,0 1,0
20.01.2021 09:00:00 3,7 3,7 11 6 18 10 ZZO 997,1 1,0 0,4
20.01.2021 08:00:00 3,3 3,3 9 5 18 10 ZO 997,6 5 0,7
20.01.2021 07:00:00 2,6 2,6 8 4 14 8 ZO 998,0 6 0,3
20.01.2021 06:00:00 2,0 2,0 9 5 - - ZO - 7 -
20.01.2021 05:00:00 2,1 2,1 9 5 14 8 ZZO 999,1 10 0,5
20.01.2021 04:00:00 2,3 2,3 9 5 14 8 ZZO 999,5 8 0,6
20.01.2021 03:00:00 2,2 2,2 9 5 14 8 ZZO 999,7 7 0,0
20.01.2021 02:00:00 2,0 2,0 8 4 11 6 ZO 1000,1 6 0,1
20.01.2021 01:00:00 2,0 2,0 8 4 14 8 ZZO 1000,5 7 0,0
20.01.2021 00:00:00 2,0 1,9 9 5 14 8 Z 1000,9 8 0,3
19.01.2021 23:00:00 2,0 2,0 8 4 14 8 Z 1001,1 10 0,0
19.01.2021 22:00:00 2,0 2,0 9 5 14 8 ZZO 1001,2 10 0,0
19.01.2021 21:00:00 1,9 1,9 11 6 22 12 ZZO 1001,4 10 0,3
19.01.2021 20:00:00 1,9 1,9 11 6 22 12 Z 1001,6 9 0,9
19.01.2021 19:00:00 2,2 2,2 13 7 25 14 ZZO 1002,0 6 1,0
19.01.2021 18:00:00 2,3 2,3 11 6 22 12 ZO 1002,1 8 0,9
19.01.2021 17:00:00 2,2 2,2 9 5 14 8 ZO 1002,6 8 0,8
19.01.2021 16:00:00 2,1 2,1 8 4 14 8 ZO 1003,0 10 0,8
19.01.2021 15:00:00 2,0 2,0 9 5 18 10 ZO 1003,3 5 0,3
19.01.2021 14:00:00 2,1 2,1 8 4 14 8 OZO 1003,9 10 0,0
19.01.2021 13:00:00 2,2 2,2 5 3 14 8 ZO 1004,8 10 0,0
19.01.2021 12:00:00 1,8 1,8 9 5 14 8 Z 1005,5 10 0,0
19.01.2021 11:00:00 2,1 2,1 4 2 11 6 - 1006,3 4,0 0,0
19.01.2021 10:00:00 1,7 1,7 4 2 11 6 - 1007,0 0,8 0,0
19.01.2021 09:00:00 1,4 1,4 9 5 14 8 ZO 1007,1 1,5 0,0
19.01.2021 08:00:00 1,3 1,3 9 5 14 8 ZO 1007,4 2,5 0,0
19.01.2021 07:00:00 1,2 1,2 9 5 14 8 ZZO 1008,0 3,0 0,0
19.01.2021 06:00:00 1,1 1,1 9 5 18 10 ZZO 1008,4 2,5 0,0
19.01.2021 05:00:00 0,7 0,7 9 5 14 8 ZZO 1008,9 3,3 0,6
19.01.2021 04:00:00 0,7 0,7 9 5 18 10 ZZO 1009,1 2,9 0,6
19.01.2021 03:00:00 1,2 0,9 13 7 22 12 Z 1010,0 4,4 0,5
19.01.2021 02:00:00 1,3 1,0 15 8 22 12 Z 1010,3 6 0,1
19.01.2021 01:00:00 1,3 0,9 15 8 18 10 Z 1010,6 8 0,0
19.01.2021 00:00:00 1,3 0,7 11 6 18 10 Z 1011,4 7 0,0
18.01.2021 23:00:00 1,0 0,4 9 5 14 8 ZZO 1011,8 5 0,0
18.01.2021 22:00:00 0,8 -0,1 8 4 14 8 ZO 1012,3 8 0,0
18.01.2021 21:00:00 0,8 -0,2 11 6 18 10 Z 1012,7 10 0,0
18.01.2021 20:00:00 0,6 -0,9 13 7 25 14 Z 1013,1 10 0,0
18.01.2021 19:00:00 0,4 -1,5 15 8 25 14 Z 1013,4 10 0,0
18.01.2021 18:00:00 0,4 -1,7 15 8 22 12 Z 1013,8 10 0,0
18.01.2021 17:00:00 0,5 -2,1 13 7 18 10 ZZW 1014,3 10 0,0
18.01.2021 16:00:00 0,5 -2,2 11 6 18 10 ZZW 1014,8 10 0,0
18.01.2021 15:00:00 0,6 -2,5 13 7 22 12 ZZW 1015,2 10 0,0
18.01.2021 14:00:00 0,6 -2,1 11 6 18 10 ZZW 1015,7 40 0,0
18.01.2021 13:00:00 0,0 -1,7 5 3 11 6 ZW 1016,5 10 0,0
18.01.2021 12:00:00 -2,5 -2,6 2 1 7 4 - 1017,1 10 0,0
18.01.2021 11:00:00 -3,2 -3,2 4 2 7 4 - 1017,7 10 0,0
18.01.2021 10:00:00 -3,2 -3,2 2 1 4 2 ZO 1018,0 10 0,0
18.01.2021 09:00:00 -4,5 -4,6 2 1 4 2 ONO 1018,1 10 0,0
18.01.2021 08:00:00 -4,9 -5,0 0 0 7 4 N 1018,2 10 0,0
18.01.2021 07:00:00 -5,5 -5,5 2 1 7 4 - 1018,2 10 0,0
18.01.2021 06:00:00 -4,2 -4,2 4 2 4 2 NNO 1018,7 7 0,0
18.01.2021 05:00:00 -3,8 -3,9 2 1 4 2 NO 1019,0 10 0,0
18.01.2021 04:00:00 -3,7 -4,0 0 0 0 0 N 1019,2 10 0,0
18.01.2021 03:00:00 -3,4 -3,7 0 0 4 2 N 1019,5 10 0,0
18.01.2021 02:00:00 -3,3 -3,7 2 1 4 2 - 1019,8 10 0,0
18.01.2021 01:00:00 -3,0 -3,5 2 1 4 2 - 1020,0 10 0,0
18.01.2021 00:00:00 -3,0 -3,7 2 1 4 2 ZO 1020,4 8 0,0
17.01.2021 23:00:00 -3,3 -4,0 2 1 4 2 - 1020,7 10 0,0
17.01.2021 22:00:00 -3,4 -4,4 2 1 4 2 - 1021,0 10 0,0
17.01.2021 21:00:00 -3,4 -4,5 0 0 4 2 N 1021,2 10 0,0
17.01.2021 20:00:00 -3,0 -4,7 4 2 4 2 O 1021,3 10 0,0
17.01.2021 19:00:00 -3,2 -4,6 4 2 7 4 ONO 1021,7 10 0,0
17.01.2021 18:00:00 -2,7 -4,7 4 2 7 4 O 1021,6 10 0,0
17.01.2021 17:00:00 -2,5 -5,0 5 3 7 4 ONO 1021,5 10 0,0
17.01.2021 16:00:00 -1,9 -4,6 5 3 7 4 ONO 1021,4 10 0,0
17.01.2021 15:00:00 -1,7 -4,0 8 4 11 6 NO 1021,2 10 0,0
17.01.2021 14:00:00 -1,1 -3,9 5 3 14 8 ONO 1021,2 10 0,0
17.01.2021 13:00:00 -1,4 -3,8 5 3 11 6 NO 1021,4 10 0,0
17.01.2021 12:00:00 -1,7 -3,9 9 5 14 8 NO 1021,6 10 0,0
17.01.2021 11:00:00 -2,3 -4,3 11 6 14 8 NO 1021,5 10 0,0
17.01.2021 10:00:00 -2,9 -4,8 8 4 14 8 NO 1021,2 10 0,0
17.01.2021 09:00:00 -3,5 -4,8 8 4 14 8 N 1020,8 10 0,0
17.01.2021 08:00:00 -3,7 -4,8 9 5 14 8 NNO 1020,5 10 0,0
17.01.2021 07:00:00 -3,2 -4,5 9 5 11 6 NO 1020,0 10 0,0
17.01.2021 06:00:00 -3,5 -4,5 8 4 11 6 NNO 1019,8 10 0,0
17.01.2021 05:00:00 -3,4 -4,8 13 7 18 10 NNO 1019,4 10 0,0
17.01.2021 04:00:00 -2,3 -3,7 11 6 18 10 ONO 1019,5 10 0,0
17.01.2021 03:00:00 -2,2 -3,5 15 8 22 12 ONO 1019,5 10 0,0
17.01.2021 02:00:00 -1,8 -3,2 15 8 22 12 O 1019,6 10 0,0
17.01.2021 01:00:00 -2,0 -3,0 13 7 22 12 ONO 1019,6 10 0,0
17.01.2021 00:00:00 -1,9 -2,9 11 6 22 12 NO 1019,5 10 0,0
16.01.2021 23:00:00 -2,1 -2,7 11 6 18 10 NO 1019,3 10 0,0
16.01.2021 22:00:00 -2,7 -3,2 11 6 18 10 NO 1019,3 10 0,0
16.01.2021 21:00:00 -3,6 -4,3 8 4 22 12 ONO 1019,2 10 0,0
16.01.2021 20:00:00 -2,9 -3,7 15 8 22 12 NO 1018,8 10 0,0
16.01.2021 19:00:00 -3,2 -4,0 9 5 14 8 N 1019,1 10 0,0
16.01.2021 18:00:00 -2,8 -3,9 11 6 18 10 N 1018,9 10 0,0
16.01.2021 17:00:00 -2,5 -3,8 11 6 22 12 N 1018,9 10 0,0
16.01.2021 16:00:00 -2,1 -4,0 15 8 25 14 N 1018,9 10 0,0
16.01.2021 15:00:00 -1,9 -4,6 15 8 25 14 N 1018,7 10 0,0
16.01.2021 14:00:00 -1,9 -4,9 13 7 22 12 N 1018,3 10 0,0
16.01.2021 13:00:00 -2,2 -5,5 13 7 25 14 NNW 1018,6 10 0,0
16.01.2021 12:00:00 -3,0 -6,3 15 8 22 12 NNW 1019,0 10 0,0
16.01.2021 11:00:00 -4,2 -7,1 11 6 22 12 NNW 1019,7 10 0,0
16.01.2021 10:00:00 -5,6 -7,9 9 5 22 12 NW 1020,2 10 0,0
16.01.2021 09:00:00 -5,6 -7,6 9 5 22 12 NW 1020,6 10 0,0
16.01.2021 08:00:00 -6,4 -7,9 11 6 18 10 NW 1020,8 10 0,0
16.01.2021 07:00:00 -7,2 -8,4 11 6 18 10 NW 1021,4 10 0,0
16.01.2021 06:00:00 -8,6 -9,5 8 4 14 8 NW 1022,0 10 0,0
16.01.2021 05:00:00 -9,2 -10,3 8 4 14 8 WNW 1022,7 10 0,0
16.01.2021 04:00:00 -10,1 -11,0 8 4 11 6 NW 1023,7 10 0,0
16.01.2021 03:00:00 -10,4 -11,3 2 1 11 6 - 1024,1 10 0,0
16.01.2021 02:00:00 -9,9 -11,0 8 4 14 8 N 1024,4 10 0,0
16.01.2021 01:00:00 -10,0 -11,1 8 4 14 8 N 1024,8 10 0,0
16.01.2021 00:00:00 -9,8 -10,9 8 4 14 8 NNW 1025,2 10 0,0
15.01.2021 23:00:00 -9,4 -10,6 11 6 18 10 N 1025,4 10 0,0
15.01.2021 22:00:00 -9,1 -10,4 9 5 18 10 NNW 1025,6 10 0,0
15.01.2021 21:00:00 -8,7 -10,0 13 7 18 10 N 1025,3 10 0,0
15.01.2021 20:00:00 -8,4 -9,7 11 6 18 10 N 1025,1 10 0,0
15.01.2021 19:00:00 -8,1 -9,6 11 6 18 10 NNW 1025,3 10 0,0
15.01.2021 18:00:00 -7,5 -9,6 11 6 18 10 N 1025,0 10 0,0
15.01.2021 17:00:00 -7,2 -9,7 13 7 22 12 N 1024,6 10 0,0
15.01.2021 16:00:00 -6,6 -9,6 11 6 25 14 N 1024,6 10 0,0
15.01.2021 15:00:00 -5,8 -9,2 15 8 32 18 N 1024,4 10 0,0
15.01.2021 14:00:00 -5,3 -9,2 22 12 36 19 N 1024,1 10 0,0
15.01.2021 13:00:00 -4,8 -9,2 16 9 32 18 N 1024,1 10 0,0
15.01.2021 12:00:00 -5,2 -9,1 18 10 32 18 N 1024,3 10 0,0
15.01.2021 11:00:00 -5,4 -9,1 22 12 32 18 N 1024,3 10 0,0
15.01.2021 10:00:00 -6,9 -9,5 18 10 29 16 N 1024,0 10 0,0
15.01.2021 09:00:00 -8,0 -9,9 13 7 25 14 N 1023,6 10 0,0
15.01.2021 08:00:00 -7,9 -9,7 15 8 25 14 N 1023,0 10 0,0
15.01.2021 07:00:00 -7,3 -9,2 13 7 22 12 N 1022,9 10 0,0
15.01.2021 06:00:00 -7,1 -9,0 13 7 22 12 N 1022,5 10 0,0
15.01.2021 05:00:00 -7,0 -8,9 11 6 22 12 NNW 1022,5 10 0,0
15.01.2021 04:00:00 -6,6 -8,7 13 7 22 12 N 1022,5 10 0,0
15.01.2021 03:00:00 -6,2 -8,3 13 7 25 14 N 1022,5 10 0,0
15.01.2021 02:00:00 -5,3 -7,4 15 8 25 14 N 1022,1 10 0,0
15.01.2021 01:00:00 -4,8 -7,2 15 8 25 14 N 1021,8 10 0,0
15.01.2021 00:00:00 -4,0 -6,5 18 10 29 16 N 1021,6 10 0,0
14.01.2021 23:00:00 -3,4 -5,3 15 8 29 16 NNO 1021,7 10 0,0
14.01.2021 22:00:00 -2,8 -4,8 16 9 29 16 N 1021,5 10 0,0
14.01.2021 21:00:00 -2,5 -4,4 18 10 25 14 N 1021,6 10 0,0
14.01.2021 20:00:00 -2,7 -4,5 15 8 25 14 N 1021,2 10 0,0

tt = temperatuur
td = dauwpunt
ff = windsnelheid
fx = windstoten
dd = windrichting
ppp = luchtdruk
vv = zicht
rr = neerslag

Weerstations in de omgeving